星链-4121 (STARLINK-4121 )

导读

STARLINK-4121是由美国于2022年7月7日发射的星链卫星,属于SpaceX公司星链(Starlink)星座计划的组成部分,该计划旨在构建全球卫星互联网星座,为全球偏远地区、海洋等信号薄弱区域提供高速互联网接入服务,该卫星入轨后将与其他星链卫星组网运行,服务全球卫星网络通信。

基本信息
目录编号:
53002
目录名称:
STARLINK-4121
国际标识:
2022-076S
轨道中心:
EARTH
卫星名称:
星链-4121
卫星全名:
星链-4121 (STARLINK-4121 )
卫星状态:
在轨 (已飞行1441 天)
发射日期:
2022-07-07 UTC
国别 :
美国 (US)
星等 :
--
轨道信息
数据来源 国际轨道数据
星历时间: 2026-06-17T12:00:02+0800
7小时前
查看轨道信息
半长轴: 6906.844km
偏心率: 0.0001365
轨道倾角: 53.160°
近地点辐角 123.547°
升交点赤经 7.415°
平近点角 193.954°
近地点: 527.764km
远地点: 529.65km
周期: 95.209分钟
每日圈数: 15.12458
详细信息
固有亮度:
5
最大亮度:
2.5
卫星平台:
Starlink v1.5
覆盖范围:
全球
运营商:
太空探索技术公司
运营商所在国:
美国
制造商(研发单位):
太空探索技术公司
制造商所在国:
美国
使用方式:
暂无
卫星简介
星链(Starlink)计划是由太空探索技术公司(SpaceX)提出的一个巨型低轨卫星互联网星座项目,计划在2019年至2024年间在太空搭建由约1.2万颗卫星组成的“星链”网络,其中1584颗将部署在地球上空550千米处的近地轨道,并从2020年开始工作。该卫星仍在工作。
2D轨道图
3D轨道图
轨道高度分析图
轨道倾角分析图
轨道综合分析图
查看轨道综合分析图